Regional Weather Roundup
Issued by NWS Portland, ME

Home | Current Version | Previous Version | Text Only | Print | Product List | Glossary On
Versions: 1 2 3 4 5 6 7 8 9 10 11 12 13 14 15 16 17 18 19 20 21 22 23 24 25 26 27 28 29 30 31 32 33 34 35 36 37 38 39 40 41 42 43 44
000
ASUS41 KGYX 210505
RWRGYX
WEATHER ROUNDUP FOR MAINE AND NEW HAMPSHIRE
NATIONAL WEATHER SERVICE GRAY ME
100 AM EDT THU AUG 21 2014

MEZ002-005-006-010-012-015-018-020-021-024-026-027-029-210600-
MAINE

CITY           SKY/WX    TMP DP  RH WIND       PRES   REMARKS
PORTLAND       CLEAR     58  55  90 CALM      30.07S
SANFORD        CLEAR     48  45  87 CALM      30.08S
BAR HARBOR     CLEAR     57  55  94 CALM      30.06S
WISCASSET      CLEAR     55  53  93 CALM      30.08F
ROCKLAND       CLEAR     59  55  88 W6        30.05F
FRYEBURG       CLEAR     53  51  93 CALM      30.08F
LEWISTONAUBURN CLEAR     55  52  88 CALM      30.07F
AUGUSTA        CLEAR     60  57  89 CALM      30.07F
WATERVILLE     CLEAR     57  55  94 CALM      30.03F
BANGOR         PTCLDY    61  58  90 CALM      30.06F
GREENVILLE       N/A     61  57  87 N3        30.08S
MILLINOCKET    CLEAR     62  59  90 CALM      30.08S
HOULTON        CLEAR     55  53  93 CALM      30.06S
PRESQUE ISLE   CLEAR     57  54  88 CALM      30.08S
FRENCHVILLE    CLEAR     60  54  80 N3        30.10S
CARIBOU        CLEAR     62  56  80 N5        30.08F
$$

NHZ002-005-008-009-011-012-014-210600-
NEW HAMPSHIRE

CITY           SKY/WX    TMP DP  RH WIND       PRES   REMARKS
PORTSMOUTH     PTCLDY    57  56  95 SW1       30.06S
ROCHESTER      CLEAR     55  52  89 NW5       30.07S
NASHUA         CLEAR     58  56  93 CALM      30.07F
MANCHESTER     PTCLDY    61  56  83 CALM      30.05F
CONCORD        CLEAR     55  54  96 CALM      30.07S
LACONIA        CLEAR     57  54  88 CALM      30.07S
PLYMOUTH       FOG       55  55 100 CALM      30.08S VSB 3/4
BERLIN         FOG       52  51  97 CALM      30.10S VSB 1/4
WHITEFIELD     CLEAR     54  51  90 CALM      30.08S
JAFFREY        CLOUDY    60  56  86 CALM      30.09F
LEBANON        CLOUDY    64  59  83 CALM      30.06S
MT WASHINGTON  PTCLDY    48  36  61 E3          N/A
$$

VTZ005-007-008-210600-
VERMONT

CITY           SKY/WX    TMP DP  RH WIND       PRES   REMARKS
ST JOHNSBURY     N/A     58  56  93 MISG      30.06S
MONTPELIER     MOCLDY    60  58  92 CALM      30.11R
BURLINGTON     MOCLDY    70  58  65 CALM      30.00S
$$

MAZ007-012-024-CTZ003-RIZ002-NYZ038-NYZ072-210600-
SOUTHERN NEW ENGLAND AND NY

CITY           SKY/WX    TMP DP  RH WIND       PRES   REMARKS
BOSTON         CLEAR     63  59  87 CALM      30.06S
WORCESTER      CLEAR     64  51  62 N3        30.08S
NANTUCKET      MOCLDY    65  61  87 NE8       30.02F
PROVIDENCE     CLEAR     62  59  90 NE3       30.06S
HARTFORD       MOCLDY    68  57  68 S7        30.04R
ALBANY         LGT RAIN  72  67  84 CALM      30.02R
NEW YORK CITY  CLOUDY    74  60  61 SW6       30.03R
$$

ANZ081-ANZ082-ANZ150-NHZ014-MEZ023>029-210600-
COASTAL MARINE OBSERVATIONS

STATION/POSITION TIME  TEMP    WIND        PRES    WAVE
                       AIR SEA DIR/SP/G            HT/PER
                 (UTC) (F)     (DEG/KT/KT) (MB)    (FT/S)
MATINICUS ROCK   0400          280/  8/  8 1017.8R
PORTLAND WX BUOY 0450   63 63   60/  2/  2 1018.0F   1/ 6
WELLS            0400   58 62  360/  1/  2 1017.4R
ISLE OF SHOALS   0400   63     350/  4/  5 1017.7R
JEFFREYS LEDGE   0421      67                N/A     1/ 9
CASHES LEDGE BUO 0450   66 67              1017.9R   1/ 7
$$

.............KEY..............
   WCI - WIND CHILL
   TC  - TEMPERATURE IN CELSIUS
   VSB - VISIBILITY IN MILES
   HX  - HEAT INDEX
   FAIR- INDICATES FEW OR NO CLOUDS BELOW 12,000 FT, WITH NO
         SIGNIFICANT WEATHER AND/OR OBSTRUCTIONS TO VISIBILITY.




USA.gov is the U.S. government's official web portal to all federal, state and local government web resources and services.